QPF
0.01 0.01 0.01 0.00 0.00 0.00 0.00 0.00 0.00 0.00 0.00 0.00 0.00 0.00 0.00 0.00 0.00 0.00 0.00 0.00 0.00 0.00 0.00 0.00 0.00 0.01 0.01 0.01 0.01 0.02 0.02 0.02 0.02 0.02 0.03 0.04 0.04 0.04
0.01 0.01 0.00 0.00 0.00 0.00 0.00 0.00 0.00 0.00 0.00 0.00 0.00 0.00 0.00 0.00 0.00 0.00 0.00 0.00 0.00 0.00 0.00 0.00 0.01 0.01 0.01 0.01 0.02 0.02 0.02 0.03 0.03 0.03 0.04 0.04 0.05 0.05
0.00 0.00 0.00 0.00 0.00 0.00 0.00 0.00 0.00 0.00 0.00 0.00 0.00 0.00 0.00 0.00 0.00 0.00 0.00 0.00 0.00 0.00 0.00 0.00 0.01 0.01 0.01 0.01 0.02 0.02 0.02 0.03 0.03 0.03 0.04 0.04 0.04 0.04
0.00 0.00 0.00 0.00 0.00 0.00 0.00 0.00 0.00 0.00 0.00 0.00 0.00 0.00 0.00 0.00 0.00 0.00 0.00 0.00 0.00 0.00 0.00 0.00 0.00 0.01 0.01 0.01 0.02 0.02 0.02 0.02 0.02 0.03 0.03 0.04 0.04 0.04
0.00 0.00 0.00 0.00 0.00 0.00 0.00 0.00 0.00 0.00 0.00 0.00 0.00 0.00 0.00 0.00 0.00 0.00 0.00 0.00 0.00 0.00 0.00 0.00 0.00 0.00 0.01 0.01 0.02 0.02 0.02 0.02 0.02 0.02 0.03 0.03 0.03 0.04
0.00 0.00 0.00 0.00 0.00 0.00 0.00 0.00 0.00 0.01 0.00 0.00 0.00 0.00 0.00 0.00 0.00 0.00 0.00 0.00 0.00 0.00 0.00 0.00 0.00 0.00 0.01 0.01 0.01 0.01 0.01 0.02 0.02 0.02 0.02 0.03 0.03 0.03
0.00 0.00 0.00 0.00 0.00 0.01 0.01 0.01 0.01 0.01 0.01 0.01 0.01 0.00 0.00 0.00 0.00 0.00 0.00 0.00 0.00 0.00 0.00 0.00 0.00 0.00 0.00 0.00 0.01 0.01 0.01 0.01 0.01 0.02 0.03 0.03 0.03 0.04
0.00 0.00 0.00 0.00 0.01 0.01 0.01 0.01 0.01 0.01 0.01 0.01 0.01 0.01 0.00 0.00 0.00 0.00 0.00 0.01 0.01 0.00 0.01 0.00 0.00 0.00 0.00 0.00 0.01 0.01 0.01 0.01 0.01 0.02 0.03 0.03 0.03 0.03
0.00 0.00 0.00 0.00 0.00 0.00 0.00 0.00 0.00 0.00 0.01 0.01 0.01 0.01 0.00 0.00 0.00 0.01 0.01 0.02 0.02 0.01 0.01 0.01 0.01 0.01 0.01 0.00 0.00 0.00 0.00 0.01 0.01 0.02 0.02 0.02 0.03 0.03
0.00 0.00 0.01 0.00 0.00 0.00 0.00 0.00 0.00 0.00 0.00 0.01 0.01 0.00 0.00 0.01 0.02 0.03 0.04 0.04 0.02 0.01 0.01 0.02 0.01 0.01 0.01 0.00 0.00 0.00 0.00 0.01 0.01 0.02 0.02 0.03 0.03 0.03
0.00 0.00 0.00 0.00 0.00 0.00 0.01 0.01 0.00 0.00 0.00 0.00 0.01 0.01 0.02 0.02 0.03 0.03 0.05 0.05 0.03 0.01 0.01 0.02 0.01 0.00 0.00 0.00 0.00 0.00 0.00 0.00 0.01 0.01 0.01 0.02 0.02 0.02
0.00 0.00 0.00 0.00 0.00 0.01 0.01 0.01 0.01 0.01 0.00 0.01 0.01 0.01 0.01 0.00 0.01 0.01 0.02 0.03 0.03 0.02 0.01 0.01 0.00 0.01 0.01 0.00 0.00 0.00 0.00 0.00 0.00 0.00 0.01 0.01 0.02 0.02
0.00 0.00 0.00 0.00 0.01 0.01 0.01 0.01 0.02 0.01 0.02 0.02 0.01 0.01 0.00 0.00 0.00 0.01 0.01 0.02 0.04 0.03 0.01 0.01 0.01 0.01 0.02 0.01 0.00 0.00 0.00 0.00 0.00 0.00 0.00 0.00 0.01 0.02
0.00 0.00 0.00 0.00 0.01 0.01 0.01 0.01 0.01 0.02 0.01 0.01 0.00 0.00 0.00 0.00 0.00 0.00 0.00 0.01 0.02 0.02 0.01 0.02 0.03 0.02 0.02 0.02 0.00 0.00 0.00 0.00 0.00 0.00 0.00 0.00 0.01 0.01
0.01 0.01 0.01 0.01 0.01 0.01 0.01 0.01 0.01 0.00 0.00 0.00 0.00 0.00 0.00 0.00 0.00 0.00 0.00 0.01 0.01 0.01 0.01 0.01 0.02 0.02 0.03 0.02 0.01 0.00 0.00 0.00 0.00 0.00 0.00 0.01 0.01 0.01
0.01 0.01 0.01 0.01 0.01 0.00 0.00 0.00 0.00 0.00 0.00 0.00 0.00 0.00 0.00 0.01 0.01 0.01 0.01 0.01 0.01 0.01 0.00 0.01 0.01 0.02 0.03 0.02 0.01 0.01 0.01 0.01 0.00 0.00 0.01 0.01 0.01 0.01
0.02 0.02 0.02 0.01 0.00 0.00 0.00 0.00 0.00 0.00 0.00 0.00 0.00 0.01 0.01 0.01 0.01 0.01 0.01 0.01 0.01 0.01 0.00 0.00 0.01 0.01 0.02 0.02 0.02 0.01 0.01 0.01 0.01 0.01 0.01 0.01 0.01 0.01
0.02 0.02 0.01 0.01 0.01 0.00 0.00 0.00 0.00 0.00 0.00 0.00 0.01 0.01 0.01 0.01 0.01 0.01 0.02 0.01 0.01 0.01 0.00 0.00 0.01 0.01 0.01 0.01 0.01 0.01 0.01 0.01 0.01 0.01 0.01 0.01 0.01 0.01
0.01 0.01 0.01 0.01 0.01 0.01 0.00 0.00 0.00 0.00 0.00 0.00 0.01 0.01 0.01 0.01 0.01 0.01 0.01 0.01 0.01 0.01 0.00 0.00 0.01 0.02 0.02 0.01 0.00 0.01 0.01 0.01 0.01 0.01 0.01 0.01 0.02 0.01
0.00 0.00 0.00 0.00 0.00 0.00 0.00 0.00 0.00 0.00 0.00 0.01 0.01 0.01 0.01 0.02 0.02 0.01 0.01 0.01 0.01 0.01 0.01 0.00 0.01 0.01 0.02 0.02 0.01 0.01 0.01 0.02 0.02 0.01 0.01 0.01 0.01 0.01
0.00 0.00 0.00 0.00 0.00 0.00 0.00 0.00 0.00 0.01 0.01 0.01 0.01 0.01 0.01 0.01 0.01 0.01 0.01 0.01 0.01 0.01 0.01 0.00 0.00 0.01 0.02 0.02 0.02 0.01 0.01 0.01 0.02 0.02 0.02 0.01 0.01 0.01
0.00 0.00 0.00 0.00 0.00 0.00 0.01 0.01 0.01 0.00 0.01 0.01 0.01 0.01 0.01 0.01 0.01 0.01 0.01 0.01 0.01 0.01 0.01 0.00 0.00 0.01 0.02 0.02 0.01 0.01 0.01 0.01 0.01 0.01 0.01 0.02 0.03 0.03
0.00 0.01 0.00 0.00 0.00 0.01 0.01 0.01 0.01 0.01 0.01 0.01 0.01 0.01 0.01 0.01 0.01 0.01 0.01 0.01 0.01 0.01 0.01 0.01 0.01 0.01 0.01 0.01 0.01 0.01 0.01 0.01 0.01 0.01 0.01 0.01 0.01 0.01
MSLP
1019.08 1019.61 1020.15 1020.68 1021.14 1021.51 1021.76 1021.88 1021.88 1021.79 1021.63 1021.44 1021.22 1021.01 1020.80 1020.59 1020.36 1020.13 1019.87 1019.60 1019.33 1019.08 1018.84 1018.63 1018.45 1018.29 1018.13 1017.95 1017.73 1017.45 1017.11 1016.72 1016.29 1015.84 1015.40 1014.99 1014.63 1014.32
1018.20 1018.71 1019.25 1019.78 1020.26 1020.66 1020.95 1021.14 1021.21 1021.20 1021.13 1021.00 1020.85 1020.67 1020.48 1020.26 1020.02 1019.75 1019.45 1019.14 1018.82 1018.54 1018.28 1018.06 1017.88 1017.73 1017.58 1017.41 1017.19 1016.92 1016.58 1016.17 1015.72 1015.25 1014.79 1014.36 1013.98 1013.65
1017.22 1017.71 1018.23 1018.74 1019.23 1019.66 1020.01 1020.26 1020.42 1020.50 1020.52 1020.49 1020.41 1020.29 1020.13 1019.93 1019.67 1019.37 1019.03 1018.68 1018.32 1017.99 1017.71 1017.47 1017.28 1017.13 1016.98 1016.81 1016.60 1016.32 1015.98 1015.56 1015.11 1014.63 1014.16 1013.72 1013.34 1013.00
1016.20 1016.65 1017.14 1017.65 1018.14 1018.59 1018.97 1019.29 1019.53 1019.71 1019.82 1019.87 1019.88 1019.82 1019.70 1019.52 1019.27 1018.95 1018.59 1018.20 1017.82 1017.46 1017.15 1016.89 1016.68 1016.52 1016.36 1016.19 1015.97 1015.70 1015.35 1014.94 1014.49 1014.01 1013.55 1013.12 1012.73 1012.39
1015.16 1015.59 1016.06 1016.55 1017.04 1017.50 1017.91 1018.27 1018.57 1018.82 1019.01 1019.14 1019.21 1019.22 1019.15 1019.00 1018.76 1018.46 1018.09 1017.70 1017.30 1016.92 1016.59 1016.32 1016.10 1015.92 1015.75 1015.57 1015.34 1015.06 1014.72 1014.32 1013.88 1013.43 1012.98 1012.57 1012.19 1011.84
1014.17 1014.58 1015.03 1015.51 1015.98 1016.44 1016.86 1017.24 1017.57 1017.85 1018.09 1018.27 1018.40 1018.46 1018.43 1018.32 1018.12 1017.84 1017.50 1017.13 1016.74 1016.37 1016.04 1015.77 1015.54 1015.34 1015.16 1014.96 1014.73 1014.45 1014.12 1013.73 1013.31 1012.88 1012.46 1012.06 1011.68 1011.33
1013.26 1013.66 1014.11 1014.56 1015.02 1015.45 1015.84 1016.21 1016.53 1016.82 1017.07 1017.27 1017.43 1017.52 1017.54 1017.48 1017.33 1017.10 1016.81 1016.47 1016.13 1015.79 1015.48 1015.21 1014.98 1014.78 1014.59 1014.38 1014.14 1013.86 1013.53 1013.17 1012.77 1012.36 1011.96 1011.57 1011.19 1010.81
1012.45 1012.86 1013.28 1013.72 1014.13 1014.52 1014.87 1015.18 1015.47 1015.72 1015.95 1016.16 1016.32 1016.44 1016.49 1016.48 1016.38 1016.22 1016.00 1015.74 1015.45 1015.16 1014.89 1014.65 1014.43 1014.23 1014.03 1013.82 1013.57 1013.29 1012.97 1012.62 1012.24 1011.85 1011.46 1011.07 1010.67 1010.25
1011.73 1012.14 1012.55 1012.94 1013.31 1013.63 1013.91 1014.16 1014.38 1014.58 1014.77 1014.95 1015.10 1015.23 1015.32 1015.35 1015.33 1015.24 1015.10 1014.91 1014.70 1014.48 1014.26 1014.06 1013.86 1013.67 1013.47 1013.26 1013.02 1012.74 1012.43 1012.09 1011.72 1011.34 1010.95 1010.54 1010.11 1009.64
1011.09 1011.48 1011.86 1012.20 1012.51 1012.76 1012.97 1013.14 1013.28 1013.42 1013.56 1013.70 1013.84 1013.97 1014.08 1014.16 1014.19 1014.18 1014.12 1014.02 1013.89 1013.74 1013.58 1013.42 1013.26 1013.09 1012.91 1012.70 1012.47 1012.21 1011.91 1011.58 1011.22 1010.84 1010.44 1010.00 1009.52 1008.98
1010.50 1010.85 1011.18 1011.47 1011.70 1011.89 1012.02 1012.12 1012.20 1012.27 1012.36 1012.47 1012.59 1012.72 1012.85 1012.96 1013.05 1013.10 1013.11 1013.08 1013.02 1012.94 1012.85 1012.74 1012.62 1012.49 1012.33 1012.15 1011.94 1011.70 1011.42 1011.10 1010.75 1010.37 1009.94 1009.47 1008.94 1008.33
1009.92 1010.22 1010.49 1010.72 1010.90 1011.01 1011.09 1011.13 1011.15 1011.19 1011.24 1011.33 1011.43 1011.56 1011.70 1011.84 1011.95 1012.04 1012.10 1012.13 1012.14 1012.11 1012.07 1012.02 1011.95 1011.86 1011.75 1011.61 1011.44 1011.23 1010.98 1010.68 1010.34 1009.95 1009.51 1009.00 1008.41 1007.74
1009.37 1009.60 1009.82 1009.98 1010.10 1010.17 1010.20 1010.21 1010.21 1010.22 1010.26 1010.33 1010.43 1010.55 1010.69 1010.83 1010.95 1011.06 1011.15 1011.21 1011.25 1011.27 1011.28 1011.28 1011.27 1011.23 1011.18 1011.10 1010.98 1010.81 1010.60 1010.33 1010.00 1009.61 1009.15 1008.61 1007.98 1007.26
1008.85 1009.02 1009.18 1009.29 1009.37 1009.42 1009.43 1009.42 1009.42 1009.43 1009.46 1009.53 1009.62 1009.73 1009.85 1009.98 1010.09 1010.19 1010.27 1010.34 1010.40 1010.45 1010.50 1010.55 1010.59 1010.63 1010.64 1010.62 1010.56 1010.45 1010.28 1010.05 1009.74 1009.35 1008.87 1008.31 1007.66 1006.91
1008.42 1008.52 1008.63 1008.70 1008.76 1008.79 1008.80 1008.80 1008.81 1008.83 1008.88 1008.94 1009.02 1009.11 1009.21 1009.30 1009.38 1009.45 1009.50 1009.56 1009.62 1009.69 1009.77 1009.87 1009.97 1010.06 1010.15 1010.20 1010.20 1010.15 1010.02 1009.81 1009.52 1009.13 1008.65 1008.08 1007.41 1006.65
1008.09 1008.15 1008.21 1008.26 1008.30 1008.33 1008.35 1008.38 1008.41 1008.45 1008.50 1008.56 1008.63 1008.69 1008.75 1008.79 1008.82 1008.84 1008.86 1008.89 1008.94 1009.01 1009.12 1009.26 1009.41 1009.57 1009.72 1009.84 1009.90 1009.89 1009.79 1009.61 1009.32 1008.93 1008.44 1007.86 1007.19 1006.44
1007.90 1007.92 1007.96 1007.99 1008.02 1008.05 1008.09 1008.13 1008.18 1008.23 1008.29 1008.35 1008.40 1008.42 1008.43 1008.42 1008.39 1008.36 1008.33 1008.33 1008.37 1008.45 1008.58 1008.75 1008.95 1009.17 1009.37 1009.53 1009.63 1009.65 1009.57 1009.39 1009.09 1008.69 1008.18 1007.59 1006.92 1006.19
1007.85 1007.85 1007.86 1007.87 1007.90 1007.93 1007.98 1008.03 1008.09 1008.15 1008.20 1008.24 1008.26 1008.25 1008.21 1008.15 1008.06 1007.98 1007.92 1007.89 1007.91 1008.00 1008.15 1008.35 1008.59 1008.85 1009.09 1009.29 1009.41 1009.43 1009.34 1009.14 1008.81 1008.38 1007.84 1007.23 1006.56 1005.86
1007.91 1007.88 1007.87 1007.87 1007.88 1007.90 1007.94 1007.99 1008.05 1008.10 1008.15 1008.17 1008.16 1008.11 1008.03 1007.92 1007.80 1007.68 1007.59 1007.54 1007.56 1007.66 1007.83 1008.06 1008.34 1008.62 1008.89 1009.10 1009.22 1009.22 1009.10 1008.86 1008.48 1008.00 1007.43 1006.79 1006.11 1005.43
1008.01 1007.96 1007.93 1007.90 1007.89 1007.90 1007.92 1007.96 1008.00 1008.04 1008.06 1008.06 1008.03 1007.95 1007.84 1007.70 1007.55 1007.41 1007.31 1007.26 1007.30 1007.41 1007.61 1007.87 1008.17 1008.47 1008.75 1008.95 1009.06 1009.03 1008.87 1008.57 1008.14 1007.60 1006.98 1006.31 1005.62 1004.94
1008.09 1008.02 1007.96 1007.90 1007.86 1007.84 1007.84 1007.85 1007.87 1007.89 1007.90 1007.88 1007.82 1007.73 1007.59 1007.44 1007.28 1007.14 1007.05 1007.02 1007.07 1007.22 1007.44 1007.73 1008.06 1008.38 1008.66 1008.86 1008.94 1008.89 1008.68 1008.32 1007.84 1007.24 1006.58 1005.87 1005.16 1004.48
1008.09 1007.99 1007.90 1007.81 1007.74 1007.69 1007.66 1007.65 1007.65 1007.64 1007.63 1007.59 1007.52 1007.42 1007.28 1007.13 1006.98 1006.86 1006.78 1006.78 1006.87 1007.05 1007.30 1007.63 1007.98 1008.32 1008.61 1008.81 1008.88 1008.80 1008.56 1008.17 1007.64 1007.00 1006.30 1005.56 1004.83 1004.14
1007.95 1007.82 1007.70 1007.59 1007.49 1007.41 1007.36 1007.32 1007.30 1007.29 1007.26 1007.21 1007.14 1007.03 1006.91 1006.77 1006.64 1006.54 1006.50 1006.53 1006.66 1006.87 1007.17 1007.53 1007.91 1008.27 1008.58 1008.79 1008.87 1008.78 1008.54 1008.13 1007.58 1006.93 1006.20 1005.45 1004.71 1004.01
Thickness
5518 5511 5504 5499 5492 5486 5479 5472 5465 5463 5465 5463 5457 5455 5449 5444 5440 5437 5434 5431 5429 5427 5425 5423 5421 5419 5417 5415 5414 5412 5411 5409 5408 5408 5409 5410 5411 5413
5511 5504 5497 5491 5485 5478 5471 5465 5458 5452 5451 5451 5446 5442 5437 5432 5428 5424 5421 5418 5415 5412 5410 5407 5405 5403 5400 5398 5396 5394 5392 5390 5389 5389 5389 5390 5391 5392
5504 5497 5491 5484 5477 5470 5463 5456 5449 5441 5439 5442 5435 5430 5424 5419 5416 5411 5407 5404 5400 5397 5394 5392 5389 5386 5384 5381 5378 5375 5373 5371 5370 5369 5369 5370 5371 5373
5497 5490 5484 5477 5469 5462 5455 5447 5441 5434 5428 5427 5425 5418 5412 5407 5403 5398 5394 5391 5387 5382 5379 5376 5373 5370 5366 5363 5360 5358 5355 5353 5351 5350 5350 5351 5352 5353
5491 5484 5477 5469 5462 5454 5447 5439 5432 5426 5418 5413 5412 5406 5400 5395 5390 5386 5381 5377 5372 5368 5364 5360 5356 5353 5349 5346 5343 5341 5338 5336 5334 5333 5332 5332 5333 5334
5484 5477 5470 5462 5455 5447 5439 5431 5423 5415 5408 5402 5399 5394 5388 5383 5375 5371 5369 5363 5358 5353 5348 5344 5340 5336 5332 5329 5327 5324 5321 5319 5317 5317 5316 5316 5317 5318
5475 5468 5461 5454 5446 5438 5431 5423 5414 5406 5398 5391 5387 5382 5376 5369 5362 5358 5354 5351 5347 5339 5335 5330 5324 5320 5316 5312 5310 5307 5306 5305 5304 5304 5304 5304 5304 5305
5466 5459 5451 5444 5437 5431 5424 5416 5407 5397 5388 5381 5376 5369 5365 5358 5352 5345 5340 5336 5335 5329 5320 5318 5310 5306 5302 5299 5297 5296 5295 5295 5294 5294 5294 5294 5295 5296
5457 5449 5442 5435 5428 5420 5413 5406 5398 5389 5381 5373 5365 5359 5353 5347 5340 5334 5328 5322 5320 5315 5307 5307 5300 5295 5292 5289 5287 5286 5286 5285 5285 5285 5285 5286 5287 5288
5446 5439 5431 5423 5416 5408 5401 5393 5385 5377 5369 5362 5355 5350 5343 5336 5328 5323 5317 5313 5309 5302 5294 5292 5290 5285 5283 5279 5278 5277 5277 5277 5277 5277 5278 5279 5280 5282
5435 5427 5419 5412 5406 5398 5390 5382 5375 5367 5360 5353 5347 5340 5333 5326 5318 5311 5304 5298 5297 5293 5284 5278 5277 5274 5273 5271 5269 5268 5268 5268 5269 5270 5271 5272 5274 5276
5424 5416 5409 5401 5394 5387 5377 5369 5362 5356 5348 5342 5334 5327 5320 5312 5305 5297 5290 5284 5281 5279 5274 5266 5264 5259 5262 5264 5261 5259 5259 5260 5261 5263 5264 5266 5268 5270
5411 5403 5396 5389 5382 5375 5366 5357 5351 5344 5336 5328 5320 5313 5306 5298 5292 5285 5278 5272 5268 5265 5261 5255 5252 5249 5246 5251 5254 5253 5252 5253 5254 5256 5257 5260 5262 5265
5399 5391 5384 5377 5370 5362 5354 5346 5339 5331 5321 5313 5305 5298 5292 5286 5280 5274 5269 5263 5259 5255 5251 5245 5243 5240 5239 5241 5245 5248 5247 5247 5248 5250 5252 5255 5257 5260
5386 5379 5372 5364 5356 5347 5339 5332 5324 5314 5305 5298 5292 5286 5279 5273 5268 5263 5259 5254 5250 5246 5243 5239 5236 5235 5233 5235 5237 5239 5240 5243 5244 5246 5248 5250 5252 5255
5372 5364 5357 5349 5340 5332 5324 5315 5306 5298 5291 5284 5278 5273 5267 5261 5256 5252 5247 5243 5239 5237 5235 5233 5230 5229 5229 5230 5231 5234 5235 5236 5240 5241 5244 5247 5250 5252
5359 5349 5340 5331 5323 5316 5308 5300 5292 5285 5278 5272 5266 5260 5255 5250 5246 5241 5237 5233 5229 5228 5226 5226 5225 5225 5225 5225 5227 5231 5232 5234 5236 5238 5241 5244 5248 5250
5346 5335 5326 5317 5309 5302 5295 5288 5280 5273 5267 5260 5255 5249 5245 5241 5236 5233 5229 5225 5223 5221 5219 5218 5217 5218 5219 5223 5226 5227 5229 5232 5234 5236 5238 5241 5246 5250
5331 5321 5312 5304 5296 5288 5281 5274 5268 5262 5256 5250 5245 5240 5236 5232 5229 5226 5223 5219 5217 5215 5214 5212 5211 5210 5211 5215 5222 5227 5227 5230 5232 5235 5237 5239 5243 5248
5315 5307 5299 5291 5283 5276 5269 5262 5257 5251 5245 5240 5236 5232 5228 5225 5222 5219 5216 5213 5212 5210 5209 5207 5206 5207 5208 5211 5216 5222 5226 5228 5231 5234 5237 5240 5243 5248
5303 5295 5287 5279 5272 5265 5258 5252 5246 5241 5237 5232 5228 5225 5221 5218 5215 5213 5210 5209 5208 5205 5204 5204 5204 5206 5206 5207 5211 5218 5224 5228 5230 5232 5235 5238 5242 5247
5292 5284 5276 5269 5262 5255 5249 5243 5238 5233 5229 5225 5222 5219 5215 5212 5210 5207 5205 5203 5202 5200 5200 5201 5202 5202 5203 5205 5208 5213 5219 5225 5230 5233 5236 5238 5240 5245
5281 5274 5267 5260 5253 5247 5241 5236 5231 5227 5224 5220 5216 5213 5210 5208 5205 5203 5201 5200 5198 5197 5197 5197 5198 5199 5200 5203 5205 5209 5214 5220 5225 5230 5234 5239 5242 5246